[[{"header":{"parameterUnit":"m.s-1","parameterCategory":1,"la1":30.2991,"la2":30.254,"lo1":-89.0895,"lo2":-89.0444,"dy":0.0017,"dx":0.0017,"nx":28,"ny":28,"refTime":"2024-08-28T21:00:00:Z","depth":0,"parameterNumber":2,"parameterNumberName":"U-component_of_WINDS"},"data":[0,0,0,0,0,0,0,0,0,0,0,0,0,0,0,0,0,0,0,0,0,0,0,0,0,0,0,0,0,0,0,0,0,0,0,0,0,0,0,0,0,0,0,0,0,0,0,0,0,0,0,0,0,0,0,0,0,0,-2.4798,-2.4799,0,-2.4888,-2.4889,-2.489,-2.4888,-2.4887,-2.4886,-2.4885,-2.4975,-2.4978,-2.4982,0,0,0,0,0,0,0,0,0,0,0,0,0,-2.4624,-2.4628,-2.4798,-2.4799,-2.48,-2.4888,-2.4889,-2.489,-2.4889,-2.4887,-2.4886,-2.4884,-2.4974,-2.4978,-2.4982,0,0,0,0,0,0,0,0,0,0,0,0,0,-2.4705,-2.4629,-2.4798,-2.481,-2.4812,-2.4887,-2.4889,-2.489,-2.4889,-2.4887,-2.4885,-2.4884,-2.4972,-2.4977,-2.4983,-2.5051,0,0,-2.4999,-2.5001,0,0,0,0,0,0,0,0,-2.4701,-2.4712,-2.4807,-2.4809,-2.4812,-2.4875,-2.4861,-2.4944,-2.4889,-2.486,-2.4885,-2.4883,-2.4943,-2.495,-2.4971,-2.5055,-2.5059,-2.4999,-2.5002,-2.5005,-2.5006,0,0,0,0,0,0,0,-2.4695,-2.4708,-2.4833,-2.4809,-2.4811,-2.4811,-2.482,-2.4876,-2.491,-2.4862,-2.4862,-2.4873,-2.4944,-2.4966,-2.4973,-2.506,-2.4999,-2.5004,-2.5007,-2.5009,-2.5206,-2.5208,0,0,0,0,0,0,-2.4687,-2.4703,-2.4831,-2.4836,-2.4751,-2.4815,-2.4826,-2.4856,-2.491,-2.4916,-2.4874,-2.4873,-2.4958,-2.4967,-2.4976,-2.506,-2.5005,-2.5009,-2.5013,-2.5204,-2.5206,-2.5209,0,0,0,0,0,0,-2.4684,-2.4699,-2.4827,-2.477,-2.4786,-2.482,-2.4855,-2.4859,-2.4882,-2.4919,-2.4925,-2.4891,-2.4957,-2.4969,-2.5033,-2.5063,-2.5012,-2.5017,-2.5201,-2.5205,-2.5208,-2.5228,0,0,0,0,0,0,-2.4679,-2.4697,-2.4724,-2.477,-2.4789,-2.4882,-2.4856,-2.4862,-2.4891,-2.4889,-2.4936,-2.4942,-2.4956,-2.5025,-2.5038,-2.507,-2.5021,-2.5199,-2.5203,-2.5207,-2.5225,-2.5232,-2.5238,0,0,0,0,0,-2.4672,-2.4725,-2.4725,-2.474,-2.4823,-2.4884,-2.4894,-2.491,-2.4893,-2.492,-2.4944,-2.4941,-2.5058,-2.5031,-2.5046,-2.508,-2.5197,-2.5202,-2.5206,-2.5222,-2.523,-2.5237,0,0,0,0,0,0,-2.468,-2.4732,-2.4732,-2.4802,-2.4839,-2.4883,-2.4917,-2.4919,-2.496,-2.4957,-2.4975,-2.4985,-2.5049,-2.5071,-2.504,-2.5149,-2.5125,-2.5133,-2.5133,-2.5141,-2.5147,-2.514,-2.5025,0,0,0,0,0,-2.469,-2.4736,-2.4778,-2.4836,-2.4854,-2.4883,-2.491,-2.4919,-2.4958,-2.4973,-2.5002,-2.5039,-2.5085,-2.5114,-2.5158,-2.5229,-2.5239,-2.5259,-2.5266,-2.527,-2.5277,-2.5316,-2.5326,-2.5224,-2.5224,-2.5224,0,0,-2.4711,-2.4745,-2.4772,-2.4838,-2.4868,-2.4914,-2.4896,-2.4946,-2.498,-2.4981,-2.5043,-2.5065,-2.5108,-2.5176,-2.5207,-2.5196,-2.5307,-2.5276,-2.528,-2.5284,-2.5322,-2.5332,-2.534,-2.5227,-2.5227,-2.5226,0,0,-2.4773,-2.4803,-2.4855,-2.4885,-2.4931,-2.495,-2.4962,-2.5007,-2.5023,-2.5086,-2.5087,-2.5128,-2.5206,-2.5237,-2.5262,-2.5338,-2.5336,-2.5352,-2.5384,-2.5422,-2.543,-2.5437,-2.5464,-2.5473,-2.5358,-2.5358,-2.5358,0,-2.4793,-2.4863,-2.4881,-2.4931,-2.496,-2.4964,-2.5016,-2.5045,-2.5102,-2.5122,-2.5109,-2.5207,-2.5236,-2.5312,-2.533,-2.5351,-2.5366,-2.5346,-2.5428,-2.5435,-2.5442,-2.5468,-2.5478,-2.5359,-2.5359,-2.5359,-2.5359,0,-2.4886,-2.4935,-2.4971,-2.5027,-2.506,-2.5111,-2.5136,-2.5168,-2.5175,-2.5195,-2.5259,-2.5295,-2.5346,-2.5365,-2.5371,-2.5441,-2.5433,-2.5424,-2.54,-2.5453,-2.5477,-2.5487,-2.5362,-2.5361,-2.5361,-2.536,0,0,-2.4953,-2.502,-2.5033,-2.5058,-2.511,-2.5148,-2.5199,-2.525,-2.5277,-2.5317,-2.536,-2.5427,-2.5419,-2.5448,-2.5459,-2.5493,-2.555,-2.548,-2.5481,-2.5491,-2.563,-2.5636,-2.5647,-2.555,-2.5552,-2.5554,-2.5626,0,-2.502,-2.5112,-2.513,-2.5209,-2.5255,-2.526,-2.5305,-2.5341,-2.5362,-2.5404,-2.5426,-2.5473,-2.5459,-2.5477,-2.5511,-2.5536,-2.5578,-2.5531,-2.559,-2.5592,-2.5579,-2.566,-2.5666,-2.5733,-2.5636,-2.5637,-2.5638,0,-2.511,-2.5153,-2.5237,-2.5283,-2.5303,-2.5343,-2.5392,-2.5432,-2.5473,-2.5486,-2.552,-2.5527,-2.5581,-2.5555,-2.5629,-2.5597,-2.5623,-2.5639,-2.5642,-2.5647,-2.5618,-2.5667,-2.5754,-2.5764,-2.5654,-2.5652,-2.5651,0,-2.5151,-2.523,-2.5291,-2.5313,-2.5368,-2.5396,-2.542,-2.546,-2.549,-2.5533,-2.5552,-2.56,-2.5626,-2.5664,-2.5684,-2.5663,-2.5757,-2.5733,-2.5769,-2.5768,-2.5787,-2.5786,-2.5879,-2.5805,-2.5805,-2.5804,-2.5804,0,-2.5223,-2.5274,-2.531,-2.5347,-2.5405,-2.5425,-2.5482,-2.5506,-2.5541,-2.5584,-2.5591,-2.563,-2.5655,-2.5698,-2.5714,-2.5773,-2.5785,-2.5797,-2.58,-2.5796,-2.5794,-2.5812,-2.5808,-2.5807,-2.5807,-2.5806,-2.5806,0,-2.5278,-2.5303,-2.537,-2.5418,-2.5431,-2.5471,-2.5512,-2.5548,-2.557,-2.5623,-2.5637,-2.567,-2.5721,-2.5745,-2.5808,-2.5819,-2.5886,-2.5887,-2.5872,-2.5874,-2.5908,-2.5904,-2.6016,-2.6032,-2.5947,-2.5948,-2.5948,0,-2.5322,-2.5362,-2.5414,-2.5443,-2.5468,-2.5514,-2.5545,-2.5567,-2.5599,-2.565,-2.5681,-2.5732,-2.5774,-2.5856,-2.5885,-2.5934,-2.5936,-2.5972,-2.5943,-2.5937,-2.5936,-2.5933,-2.5937,-2.5976,-2.5977,-2.5978,-2.5978,0,-2.5398,-2.5409,-2.5453,-2.5502,-2.5539,-2.5579,-2.5618,-2.5641,-2.567,-2.5705,-2.5758,-2.5791,-2.5856,-2.5907,-2.5958,-2.5982,-2.5985,-2.5987,-2.5998,-2.5994,-2.5984,-2.5989,-2.5886,-2.5984,-2.5984,-2.5983,-2.5983,-2.5983,-2.5448,-2.5484,-2.5527,-2.5576,-2.5608,-2.5645,-2.5681,-2.5708,-2.5752,-2.5807,-2.5818,-2.5874,-2.5915,-2.5984,-2.6011,-2.6055,-2.6046,-2.6062,-2.6066,-2.6069,-2.6071,-2.5977,-2.6064,-2.6064,-2.6064,-2.6064,-2.6064,0,-2.5524,-2.5552,-2.5598,-2.5652,-2.5691,-2.5692,-2.5735,-2.5768,-2.5817,-2.5856,-2.5898,-2.5958,-2.6008,-2.6043,-2.6094,-2.6122,-2.6125,-2.6135,-2.6133,-2.6138,-2.6076,-2.6061,-2.6132,-2.6132,-2.6132,-2.6132,-2.6132,-2.6132,-2.5568,-2.5629,-2.5645,-2.5722,-2.575,-2.5805,-2.583,-2.5864,-2.5895,-2.5963,-2.6004,-2.6027,-2.6064,-2.6118,-2.6164,-2.6173,-2.6191,-2.6201,-2.621,-2.615,-2.6143,-2.6136,-2.6122,-2.6205,-2.6205,-2.6269,-2.6269,-2.627]},{"header":{"parameterUnit":"m.s-1","parameterCategory":1,"la1":30.2991,"la2":30.254,"lo1":-89.0895,"lo2":-89.0444,"dy":0.0017,"dx":0.0017,"nx":28,"ny":28,"refTime":"2024-08-28T21:00:00:Z","depth":0,"parameterNumber":3,"parameterNumberName":"V-component_of_WINDS"},"data":[0,0,0,0,0,0,0,0,0,0,0,0,0,0,0,0,0,0,0,0,0,0,0,0,0,0,0,0,0,0,0,0,0,0,0,0,0,0,0,0,0,0,0,0,0,0,0,0,0,0,0,0,0,0,0,0,0,0,2.147,2.1471,0,2.1578,2.1579,2.158,2.1599,2.1599,2.1598,2.1597,2.1702,2.1706,2.1709,0,0,0,0,0,0,0,0,0,0,0,0,0,2.1278,2.1281,2.147,2.1471,2.1473,2.1577,2.1579,2.158,2.16,2.1598,2.1597,2.1596,2.1701,2.1705,2.171,0,0,0,0,0,0,0,0,0,0,0,0,0,2.1371,2.1282,2.147,2.1495,2.1498,2.1577,2.1579,2.1581,2.16,2.1598,2.1597,2.1596,2.17,2.1705,2.171,2.177,0,0,2.1727,2.1729,0,0,0,0,0,0,0,0,2.1365,2.1378,2.149,2.1493,2.1497,2.1574,2.155,2.1644,2.16,2.1561,2.1597,2.1595,2.166,2.1669,2.1692,2.1775,2.178,2.1727,2.1731,2.1733,2.1735,0,0,0,0,0,0,0,2.1359,2.1373,2.1512,2.1491,2.1496,2.15,2.1512,2.1568,2.1617,2.1564,2.1566,2.1579,2.1662,2.1687,2.1694,2.1781,2.1727,2.1732,2.1736,2.1738,2.1919,2.1921,0,0,0,0,0,0,2.1348,2.1368,2.1509,2.1516,2.1427,2.1504,2.1518,2.155,2.1616,2.1625,2.158,2.1579,2.1678,2.1688,2.1698,2.1773,2.1733,2.1738,2.1741,2.1918,2.192,2.1922,0,0,0,0,0,0,2.1344,2.1361,2.1505,2.1442,2.1461,2.1509,2.1546,2.1553,2.1578,2.1628,2.1636,2.1596,2.1677,2.1691,2.1753,2.1777,2.1741,2.1746,2.1916,2.1918,2.1921,2.1922,0,0,0,0,0,0,2.1339,2.1359,2.1383,2.1443,2.1464,2.1558,2.1547,2.1556,2.1588,2.1588,2.1645,2.1653,2.1677,2.1744,2.1758,2.1784,2.175,2.1914,2.1917,2.192,2.192,2.1924,2.1928,0,0,0,0,0,2.1332,2.1378,2.1384,2.1401,2.1495,2.156,2.1572,2.16,2.159,2.1614,2.1646,2.1652,2.1772,2.1751,2.1766,2.1794,2.1913,2.1916,2.192,2.1918,2.1924,2.1928,0,0,0,0,0,0,2.1318,2.1386,2.1394,2.1461,2.1505,2.1563,2.1594,2.1604,2.165,2.1648,2.1679,2.1692,2.1752,2.1779,2.1754,2.1855,2.1842,2.1848,2.1835,2.1841,2.1844,2.1836,2.1754,0,0,0,0,0,2.1324,2.1372,2.1428,2.1482,2.1504,2.1545,2.1574,2.1592,2.1638,2.1655,2.1692,2.1735,2.1783,2.1813,2.186,2.1925,2.1937,2.1951,2.1955,2.1958,2.1963,2.2,2.2007,2.1933,2.1933,2.1933,0,0,2.1334,2.1377,2.1405,2.148,2.1516,2.1564,2.156,2.1611,2.1646,2.1663,2.1724,2.1753,2.1802,2.1866,2.1896,2.1891,2.1987,2.1962,2.1964,2.1968,2.2004,2.2011,2.2017,2.1936,2.1935,2.1935,0,0,2.1378,2.1416,2.1465,2.1502,2.1557,2.1584,2.1596,2.1653,2.1673,2.1736,2.1749,2.1791,2.1873,2.1908,2.1937,2.1995,2.2002,2.201,2.2029,2.2064,2.207,2.2075,2.2096,2.2103,2.2015,2.2015,2.2015,0,2.1384,2.1458,2.1489,2.154,2.1572,2.1591,2.1641,2.1674,2.1741,2.1762,2.1756,2.1859,2.1894,2.1966,2.1981,2.2004,2.2017,2.2003,2.2067,2.2073,2.2078,2.2098,2.2106,2.2015,2.2015,2.2015,2.2015,0,2.1462,2.1513,2.1546,2.1612,2.1649,2.1698,2.1736,2.1769,2.1784,2.1812,2.1875,2.1918,2.1974,2.1993,2.2007,2.2068,2.2062,2.2061,2.2048,2.2085,2.2105,2.2113,2.2016,2.2016,2.2016,2.2016,0,0,2.1499,2.1583,2.1595,2.1625,2.1688,2.1727,2.1778,2.1834,2.1862,2.1907,2.195,2.2019,2.2019,2.2051,2.207,2.2101,2.2145,2.2096,2.2098,2.2104,2.2214,2.2214,2.2223,2.2151,2.2152,2.2154,2.221,0,2.155,2.1643,2.1673,2.1749,2.1797,2.1816,2.186,2.1903,2.1931,2.1974,2.2004,2.2053,2.2049,2.2069,2.2101,2.2133,2.2168,2.213,2.219,2.2191,2.2176,2.2233,2.2233,2.2284,2.2218,2.2219,2.222,0,2.1621,2.167,2.1752,2.181,2.1831,2.187,2.1925,2.1967,2.2015,2.2033,2.207,2.2087,2.214,2.2125,2.2197,2.2171,2.2197,2.2217,2.222,2.2226,2.2207,2.224,2.2301,2.2309,2.2232,2.2231,2.2231,0,2.164,2.1726,2.1786,2.1812,2.1881,2.1908,2.1938,2.1985,2.2018,2.2065,2.2086,2.2138,2.2167,2.2206,2.2236,2.2223,2.2307,2.2294,2.2322,2.2321,2.2338,2.2337,2.2404,2.2356,2.2356,2.2356,2.2356,0,2.1693,2.1742,2.1796,2.1833,2.1888,2.1922,2.1976,2.2006,2.2049,2.2092,2.2111,2.2151,2.2188,2.2232,2.2256,2.2313,2.2326,2.2341,2.2346,2.2339,2.2337,2.2356,2.2353,2.2358,2.2358,2.2357,2.2357,0,2.1723,2.1761,2.1828,2.1888,2.1905,2.1943,2.1994,2.203,2.206,2.2113,2.2128,2.2173,2.2226,2.2261,2.2327,2.2344,2.2405,2.241,2.2389,2.2392,2.2419,2.2415,2.25,2.2513,2.2457,2.2457,2.2458,0,2.1754,2.1793,2.1858,2.1889,2.1919,2.1968,2.2002,2.2037,2.2071,2.213,2.2159,2.2214,2.226,2.2343,2.2381,2.2433,2.2439,2.2465,2.2446,2.2438,2.2439,2.2436,2.244,2.2467,2.2468,2.2468,2.2469,0,2.1806,2.1823,2.1871,2.1927,2.1967,2.2012,2.2057,2.208,2.2123,2.216,2.2215,2.2251,2.2321,2.2374,2.243,2.2459,2.2471,2.2474,2.2484,2.2476,2.2462,2.247,2.2397,2.2472,2.2472,2.2471,2.2471,2.2471,2.1837,2.1872,2.1924,2.1978,2.2016,2.2057,2.2095,2.213,2.2177,2.2237,2.2255,2.2313,2.2361,2.2437,2.2467,2.2512,2.2509,2.2522,2.2526,2.2528,2.2529,2.2456,2.2522,2.2522,2.2522,2.2522,2.2522,0,2.1889,2.1924,2.1973,2.2036,2.2078,2.2088,2.2138,2.2172,2.2223,2.2268,2.2313,2.2377,2.243,2.2473,2.2527,2.2555,2.2562,2.2568,2.2566,2.2572,2.2529,2.2515,2.2561,2.2561,2.2561,2.2561,2.2561,2.2561,2.1921,2.1982,2.2005,2.2085,2.2119,2.2177,2.2205,2.2244,2.228,2.2351,2.2395,2.2424,2.2468,2.2526,2.2574,2.2586,2.2604,2.2609,2.2621,2.258,2.2575,2.2571,2.2558,2.2613,2.2613,2.2662,2.2662,2.2662]}]]